GW0416 Weather Reports


Display with metric or nautical units.
time (UTC)temp
F
wind
direction
speed
MPH
gust
MPH
rain 1hr
in
rain 24hr
in
rain mn
in
humidity
%
barometer
mb
20260903124535 46 188 7.0 9.0 0.00 0.07 0.00 81 1007.2
20260903123035 47 172 6.0 14.0 0.00 0.07 0.00 78 1006.9
20260903121534 49 214 10.0 16.0 0.00 0.07 0.00 73 1006.9
20260903120039 47 244 8.0 12.0 0.00 0.07 0.00 76 1006.9
20260903114532 50 245 9.0 15.0 0.00 0.07 0.00 72 1007.0
20260903113033 46 234 2.0 10.0 0.00 0.07 0.00 75 1007.2
20260903111546 51 252 7.0 11.0 0.00 0.07 0.00 70 1007.1
20260903110034 49 261 5.0 7.0 0.00 0.07 0.00 73 1007.3
20260903104537 47 257 2.0 4.0 0.00 0.07 0.00 76 1007.3
20260903103051 48 198 5.0 8.0 0.00 0.07 0.00 74 1007.3
20260903101534 48 229 3.0 5.0 0.00 0.07 0.00 75 1007.2
20260903100038 47 0 0.0 2.0 0.00 0.07 0.00 77 1007.1
20260903094539 49 227 0.0 3.0 0.00 0.07 0.00 75 1007.3
20260903093046 49 229 2.0 4.0 0.00 0.07 0.00 73 1006.9
20260903091539 49 242 2.0 4.0 0.00 0.07 0.00 73 1006.9
20260903090038 50 242 0.0 3.0 0.00 0.07 0.00 73 1007.0
20260903084544 50 244 3.0 8.0 0.00 0.07 0.00 73 1006.8
20260903083033 49 212 5.0 7.0 0.00 0.07 0.00 77 1006.8
20260903081535 48 198 4.0 5.0 0.00 0.07 0.00 79 1006.8
20260903080039 48 188 8.0 12.0 0.00 0.07 0.00 78 1006.8
20260903074536 48 217 7.0 10.0 0.00 0.07 0.00 79 1006.8
20260903073037 49 175 6.0 11.0 0.00 0.07 0.00 76 1006.9
20260903071534 49 205 8.0 12.0 0.00 0.07 0.00 78 1006.8
20260903070035 52 232 7.0 11.0 0.00 0.07 0.00 71 1006.8
20260903064542 52 232 7.0 10.0 0.00 0.07 0.00 73 1006.6
20260903063044 50 234 5.0 10.0 0.00 0.07 0.00 77 1006.8
20260903061537 51 207 7.0 9.0 0.00 0.07 0.00 78 1006.6
20260903060042 51 202 5.0 9.0 0.00 0.07 0.00 78 1006.9
20260903054537 52 202 7.0 14.0 0.00 0.07 0.07 77 1007.1
20260903053037 52 184 10.0 16.0 0.00 0.07 0.07 78 1007.1
20260903051536 51 208 7.0 10.0 0.00 0.07 0.07 82 1007.3
20260903050044 50 221 7.0 15.0 0.00 0.07 0.07 81 1007.3
20260903044544 51 227 8.0 11.0 0.00 0.07 0.07 80 1007.5
20260903043036 52 230 9.0 12.0 0.00 0.07 0.07 76 1007.4
20260903041542 54 222 8.0 14.0 0.00 0.07 0.07 73 1007.2
20260903040038 53 229 7.0 12.0 0.00 0.07 0.07 76 1007.6
20260903034538 54 238 7.0 14.0 0.00 0.07 0.07 74 1007.5
20260903033036 53 244 10.0 15.0 0.00 0.07 0.07 74 1007.3
20260903031538 55 240 10.0 17.0 0.00 0.07 0.07 72 1007.1
20260903030035 55 201 9.0 18.0 0.00 0.07 0.07 73 1007.3
20260903024535 55 288 13.0 19.0 0.00 0.07 0.07 73 1007.0
20260903023034 56 270 13.0 21.0 0.00 0.07 0.07 73 1006.5
20260903021536 57 246 15.0 23.0 0.00 0.07 0.07 73 1006.8
20260903020057 57 200 11.0 14.0 0.00 0.07 0.07 77 1006.8
20260903014537 60 227 6.0 10.0 0.00 0.07 0.07 70 1006.4
20260903013035 61 185 6.0 8.0 0.00 0.07 0.07 70 1007.0
20260903011538 62 171 4.0 7.0 0.00 0.07 0.07 64 1007.2
20260903010035 60 169 6.0 8.0 0.01 0.07 0.07 68 1007.2
20260903004537 59 269 4.0 9.0 0.02 0.07 0.07 72 1006.8
20260903003034 59 328 6.0 13.0 0.04 0.07 0.07 74 1006.6
20260903001552 59 318 2.0 7.0 0.04 0.07 0.07 70 1007.6
20260903000041 59 285 7.0 18.0 0.03 0.06 0.06 71 1008.1
20260902234539 59 216 20.0 30.0 0.05 0.05 0.05 68 1008.9
20260902233036 59 230 32.0 44.0 0.03 0.03 0.03 70 1008.2
20260902231540 59 206 26.0 39.0 0.03 0.03 0.03 70 1007.9
20260902230037 58 240 30.0 60.0 0.03 0.03 0.03 73 1007.1
20260902224534 76 223 24.0 41.0 0.00 0.00 0.00 32 1004.6
20260902223036 81 171 8.0 17.0 0.00 0.00 0.00 30 1003.2
20260902221551 82 200 10.0 20.0 0.00 0.00 0.00 29 1003.2
20260902220037 82 161 11.0 18.0 0.00 0.00 0.00 28 1003.2
20260902214535 83 205 18.0 29.0 0.00 0.00 0.00 29 1003.5
20260902213036 82 172 11.0 26.0 0.00 0.00 0.00 31 1003.5
20260902211536 82 148 8.0 19.0 0.00 0.00 0.00 32 1003.7
20260902210036 80 167 10.0 19.0 0.00 0.00 0.00 32 1004.2
20260902204543 80 146 12.0 18.0 0.00 0.00 0.00 32 1004.8
20260902203036 78 149 10.0 20.0 0.00 0.00 0.00 34 1005.0
20260902201540 78 151 13.0 21.0 0.00 0.00 0.00 34 1005.3
20260902200037 77 179 11.0 20.0 0.00 0.00 0.00 37 1005.4
20260902194549 77 190 9.0 16.0 0.00 0.00 0.00 38 1005.4
20260902193037 76 158 10.0 15.0 0.00 0.00 0.00 38 1005.5
20260902191546 76 209 10.0 19.0 0.00 0.00 0.00 38 1005.7
20260902190036 76 160 12.0 20.0 0.00 0.00 0.00 37 1006.0
20260902184535 75 192 11.0 20.0 0.00 0.00 0.00 40 1006.1
20260902183045 75 166 13.0 20.0 0.00 0.00 0.00 40 1006.4
20260902181533 75 215 9.0 21.0 0.00 0.00 0.00 41 1006.4
20260902180037 74 175 13.0 21.0 0.00 0.00 0.00 43 1006.6
20260902174535 73 190 11.0 20.0 0.00 0.00 0.00 43 1006.8
20260902173050 73 193 14.0 21.0 0.00 0.00 0.00 44 1006.9
20260902171534 73 214 12.0 19.0 0.00 0.00 0.00 43 1006.9
20260902170038 72 175 10.0 16.0 0.00 0.00 0.00 46 1006.9
20260902164541 71 194 13.0 19.0 0.00 0.00 0.00 46 1006.9
20260902163034 71 229 12.0 18.0 0.00 0.00 0.00 47 1006.8
20260902161536 70 214 10.0 15.0 0.00 0.00 0.00 48 1006.8
20260902160042 68 228 8.0 16.0 0.00 0.00 0.00 50 1007.1
20260902154547 69 238 12.0 18.0 0.00 0.00 0.00 49 1007.3
20260902153037 69 236 14.0 21.0 0.00 0.00 0.00 50 1007.3
20260902151538 66 236 11.0 14.0 0.00 0.00 0.00 53 1007.6
20260902150038 65 259 5.0 10.0 0.00 0.00 0.00 53 1007.6
20260902144534 64 230 6.0 12.0 0.00 0.00 0.00 53 1007.9
20260902143037 62 248 2.0 4.0 0.00 0.00 0.00 56 1008.0
20260902141538 61 249 2.0 4.0 0.00 0.00 0.00 57 1008.1
20260902140039 60 230 3.0 6.0 0.00 0.00 0.00 58 1008.1
20260902134536 58 240 2.0 5.0 0.00 0.00 0.00 62 1007.9
20260902133038 57 239 4.0 7.0 0.00 0.00 0.00 63 1007.8
20260902131542 57 200 6.0 9.0 0.00 0.00 0.00 62 1007.8
20260902130049 56 217 4.0 10.0 0.00 0.00 0.00 65 1007.6